Location: Ahstedt
(52.2048°N, 10.1060°E)
Time: 23:28:01
(UTC+00:00)

IRS-1D - Pass Details

Date: 18 January 2026
Orbit: 737 x 810 km, 98.8° (Epoch: 17 February)

Event Time Altitude Azimuth Distance (km) Brightness Sun altitude
Rises 05:15:21 0° 12° (NNE) 3,335 6.8 -18.3°
Reaches altitude 10° 05:17:43 10° 8° (N) 2,405 6.0 -17.9°
Maximum altitude 05:22:53 53° 293° (WNW) 989 3.7 -17.1°
Drops below altitude 10° 05:28:02 10° 218° (SW) 2,391 5.8 -16.4°
Sets 05:30:24 0° 214° (SSW) 3,315 6.6 -16.0°
